Palma de Mallorca, Spain

3:23 AM CEST on April 25, 2017 (GMT +0200)
Palma De Mallorca

Weather History for LEPA - July, 2012

Change the Weather History Date:

Wednesday, July 11, 2012

  Actual Average Record
Temperature  
Mean Temperature 78 °F -  
Max Temperature 86 °F 85 °F 93 °F (1999)
Min Temperature 69 °F 65 °F 57 °F (1996)
Cooling Degree Days 12    
Growing Degree Days 28 (Base 50)    
Moisture  
Dew Point 71 °F    
Average Humidity 74    
Maximum Humidity 94    
Minimum Humidity 44    
Precipitation  
Precipitation 0.00 in 0.02 in - ()
Sea Level Pressure  
Sea Level Pressure 30.00 in    
Wind  
Wind Speed 5 mph ()    
Max Wind Speed 14 mph    
Max Gust Speed -    
Visibility 6.3 miles    
Events      
Averages and records for this station are not official NWS values.
T = Trace of Precipitation, MM = Missing Value Source: Averaged Metar Reports

Daily Weather History Graph

Daily Weather History Graph

Search for Another Location

Airport or City:

Trip Planner

Search our weather history database for the weather conditions in past years. The results will help you decide how hot, cold, wet, or windy it might be!

Date:

Astronomy

Jul. 11, 2012 Rise Set
Actual Time 6:31 AM CEST 9:17 PM CEST
Civil Twilight 5:59 AM CEST 9:49 PM CEST
Nautical Twilight 5:19 AM CEST 10:29 PM CEST
Astronomical Twilight 4:34 AM CEST 11:14 PM CEST
Moon 12:57 AM CEST (7/11) 2:38 PM CEST (7/11)
Length of Visible Light 15h 49m
Length of Day
14h 46m
Waning Gibbous, 47% of the Moon is Illuminated
Jul 11
Waning Gibbous
Jul 19
New
Jul 26
First Quarter
Aug 2
Full
Aug 9
Last Quarter

Hourly Weather History & Observations

Time (CEST) Temp. Heat Index Dew Point Humidity Pressure Visibility Wind Dir Wind Speed Gust Speed Precip Events Conditions
12:00 AM 77.0 °F - 71.6 °F 83% 29.98 in 6.2 mi Calm Calm - N/A   Scattered Clouds
12:30 AM 77.0 °F - 71.6 °F 83% 30.01 in 6.2 mi SSE 2.3 mph - N/A   Scattered Clouds
1:00 AM 75.2 °F - 69.8 °F 83% 29.98 in 6.2 mi Calm Calm - N/A   Partly Cloudy
1:30 AM 73.4 °F - 69.8 °F 88% 30.01 in 6.2 mi Calm Calm - N/A   Partly Cloudy
2:00 AM 73 °F - 68 °F 78% 30.01 in 9 mi Calm Calm - -   Partly Cloudy
2:00 AM 73.4 °F - 69.8 °F 88% 30.01 in 6.2 mi Calm Calm - N/A   Scattered Clouds
2:30 AM 73.4 °F - 69.8 °F 88% 30.01 in 6.2 mi Calm Calm - N/A   Scattered Clouds
3:00 AM 71.6 °F - 69.8 °F 94% 29.98 in 6.2 mi NE 3.5 mph - N/A   Partly Cloudy
4:00 AM 71.6 °F - 68.0 °F 88% 29.95 in 6.2 mi East 1.2 mph - N/A   Partly Cloudy
4:30 AM 69.8 °F - 68.0 °F 94% 29.95 in 6.2 mi NE 5.8 mph - N/A   Partly Cloudy
5:00 AM 71.6 °F - 69.8 °F 94% 29.95 in 6.2 mi ENE 6.9 mph - N/A   Partly Cloudy
5:30 AM 73.4 °F - 69.8 °F 88% 29.95 in 6.2 mi ENE 5.8 mph - N/A   Partly Cloudy
6:30 AM 73.4 °F - 69.8 °F 88% 29.95 in 6.2 mi East 9.2 mph - N/A   Partly Cloudy
7:00 AM 73.4 °F - 71.6 °F 94% 29.98 in 5.6 mi ENE 5.8 mph - N/A   Partly Cloudy
7:30 AM 75.2 °F - 71.6 °F 89% 29.98 in 5.6 mi NE 8.1 mph - N/A   Partly Cloudy
8:00 AM 77 °F - 70 °F 74% 30.01 in 6 mi ENE 8.1 mph - -   Mist
8:00 AM 77.0 °F - 73.4 °F 89% 30.01 in 5.6 mi ENE 5.8 mph - N/A   Partly Cloudy
8:30 AM 78.8 °F - 73.4 °F 83% 30.01 in 5.6 mi East 8.1 mph - N/A   Partly Cloudy
9:00 AM 80.6 °F 84.6 °F 71.6 °F 74% 29.98 in 6.2 mi East 9.2 mph - N/A   Partly Cloudy
9:30 AM 82.4 °F 86.3 °F 69.8 °F 66% 30.01 in 6.2 mi East 9.2 mph - N/A   Scattered Clouds
10:00 AM 82.4 °F 86.3 °F 69.8 °F 66% 30.01 in 6.2 mi East 6.9 mph - N/A   Mostly Cloudy
10:30 AM 82.4 °F 86.3 °F 69.8 °F 66% 30.01 in 6.2 mi East 4.6 mph - N/A   Mostly Cloudy
11:00 AM 84.2 °F 88.4 °F 69.8 °F 62% 30.01 in 6.2 mi East 3.5 mph - N/A   Mostly Cloudy
11:30 AM 82.4 °F 87.2 °F 71.6 °F 70% 30.01 in 6.2 mi WSW 8.1 mph - N/A   Scattered Clouds
12:00 PM 84.2 °F 89.6 °F 71.6 °F 66% 30.04 in 6.2 mi WSW 10.4 mph - N/A   Scattered Clouds
12:30 PM 84.2 °F 89.6 °F 71.6 °F 66% 30.04 in 6.2 mi SW 11.5 mph - N/A   Scattered Clouds
1:00 PM 86.0 °F 90.4 °F 69.8 °F 58% 30.04 in 6.2 mi SW 13.8 mph - N/A   Partly Cloudy
1:30 PM 86.0 °F 90.4 °F 69.8 °F 58% 30.01 in 6.2 mi SW 11.5 mph - N/A   Scattered Clouds
2:00 PM 86 °F - 67 °F 44% 30.03 in 9 mi WSW 13.8 mph - -   Scattered Clouds
2:00 PM 84.2 °F 88.4 °F 69.8 °F 62% 30.01 in 6.2 mi SW 12.7 mph - N/A   Partly Cloudy
3:00 PM 86.0 °F 91.8 °F 71.6 °F 62% 30.01 in 6.2 mi WSW 13.8 mph - N/A   Partly Cloudy
3:30 PM 86.0 °F 91.8 °F 71.6 °F 62% 30.01 in 6.2 mi SW 10.4 mph - N/A   Partly Cloudy
4:00 PM 84.2 °F 89.6 °F 71.6 °F 66% 30.01 in 6.2 mi SW 9.2 mph - N/A   Partly Cloudy
4:30 PM 86.0 °F 91.8 °F 71.6 °F 62% 30.01 in 6.2 mi SW 9.2 mph - N/A   Partly Cloudy
5:00 PM 86.0 °F 91.8 °F 71.6 °F 62% 29.98 in 6.2 mi SW 9.2 mph - N/A   Partly Cloudy
5:30 PM 84.2 °F 89.6 °F 71.6 °F 66% 29.98 in 6.2 mi SW 9.2 mph - N/A   Partly Cloudy
6:00 PM 84.2 °F 90.9 °F 73.4 °F 70% 29.98 in 6.2 mi SW 9.2 mph - N/A   Scattered Clouds
6:30 PM 84.2 °F 89.6 °F 71.6 °F 66% 29.98 in 6.2 mi SW 8.1 mph - N/A   Scattered Clouds
7:00 PM 84.2 °F 90.9 °F 73.4 °F 70% 29.98 in 6.2 mi SW 5.8 mph - N/A   Partly Cloudy
7:30 PM 84.2 °F 90.9 °F 73.4 °F 70% 29.98 in 6.2 mi SW 6.9 mph - N/A   Partly Cloudy
8:00 PM 83 °F - 71 °F 58% 29.98 in 7 mi SSW 9.2 mph - -   Scattered Clouds
8:30 PM 82.4 °F 88.2 °F 73.4 °F 74% 29.95 in 6.2 mi SW 3.5 mph - N/A   Partly Cloudy
9:00 PM 80.6 °F 85.4 °F 73.4 °F 79% 29.98 in 6.2 mi SW 3.5 mph - N/A   Scattered Clouds
9:30 PM 80.6 °F 85.4 °F 73.4 °F 79% 29.98 in 6.2 mi NE 6.9 mph - N/A   Partly Cloudy
10:00 PM 80.6 °F 84.6 °F 71.6 °F 74% 30.01 in 6.2 mi NE 6.9 mph - N/A   Partly Cloudy
10:30 PM 80.6 °F 84.6 °F 71.6 °F 74% 30.01 in 6.2 mi NE 8.1 mph - N/A   Partly Cloudy
11:00 PM 78.8 °F - 71.6 °F 78% 30.04 in 6.2 mi NE 6.9 mph - N/A   Partly Cloudy
11:30 PM 78.8 °F - 71.6 °F 78% 30.04 in 6.2 mi NE 5.8 mph - N/A   Partly Cloudy